"2010-09-06 00:00:00",135661,9.82,296,1.812,0.201,23.81,111.209,28,28.91,9.58,0,111.4,13.07,28.85,258.0
"2010-09-06 00:00:30",135662,9.65,295.3,2.235,0.176,23.82,111.2072,28,28.9,9.57,0,111.4,13.06,28.85,257.3
"2010-09-06 00:01:00",135663,9.54,296.6,2.816,0.392,23.74,111.2024,27.99,28.9,9.64,0,111.4,13.06,28.83,258.6
"2010-09-06 00:01:30",135664,9.98,295.4,1.377,0.151,23.74,111.1928,27.96,28.9,9.66,0,111.4,13.06,28.81,257.4
"2010-09-06 00:02:00",135665,10.22,295.8,1.139,0.1,23.77,111.1847,27.94,28.89,9.66,0,111.4,13.06,28.79,257.8
"2010-09-06 00:02:30",135666,10.41,295.1,1.176,0.208,23.77,111.184,27.94,28.89,9.68,0,111.4,13.06,28.79,257.1
"2010-09-06 00:03:00",135667,10.61,293.4,1.923,0.274,23.71,111.1875,27.95,28.88,9.72,0,111.4,13.06,28.80,255.4
"2010-09-06 00:03:30",135668,10.12,295.9,2.878,0.183,23.63,111.184,27.94,28.87,9.77,0,111.4,13.06,28.79,257.9
"2010-09-06 00:04:00",135669,9.81,301.1,1.934,0.248,23.57,111.184,27.94,28.86,9.82,0,111.4,13.06,28.79,263.1
"2010-09-06 00:04:30",135670,9.89,301.2,2.452,0.349,23.59,111.1906,27.96,28.87,9.92,0,111.4,13.06,28.80,263.2
"2010-09-06 00:05:00",135671,9.71,302,2.254,0.317,23.56,111.1912,27.96,28.85,9.92,0,111.4,13.06,28.81,264.0
"2010-09-06 00:05:30",135672,9.04,304.8,1.881,0.347,23.54,111.1953,27.97,28.85,9.93,0,111.4,13.06,28.82,266.8
"2010-09-06 00:06:00",135673,9.72,303.9,0.857,0.088,23.51,111.194,27.96,28.85,9.95,0,111.4,13.07,28.81,265.9
"2010-09-06 00:06:30",135674,9.94,306.2,1.786,0.197,23.5,111.1905,27.95,28.84,9.96,0,111.4,13.07,28.80,268.2
"2010-09-06 00:07:00",135675,9.84,308.8,1.549,0.178,23.52,111.1849,27.94,28.83,9.97,0,111.4,13.07,28.79,270.8
"2010-09-06 00:07:30",135676,10.28,309.6,1.86,0.212,23.52,111.1796,27.93,28.82,9.97,0,111.4,13.07,28.78,271.6
"2010-09-06 00:08:00",135677,10.34,308.9,1.555,0.132,23.54,111.1816,27.93,28.82,10.01,0,111.4,13.07,28.78,270.9
"2010-09-06 00:08:30",135678,10.28,311,1.409,0.222,23.51,111.1757,27.92,28.83,9.98,0,111.4,13.07,28.77,273.0
"2010-09-06 00:09:00",135679,10.33,309.1,0.732,0.259,23.52,111.174,27.91,28.82,9.99,0,111.4,13.07,28.76,271.1
"2010-09-06 00:09:30",135680,10.32,308.5,0.64,0.107,23.56,111.1737,27.91,28.81,9.98,0,111.4,13.07,28.76,270.5
"2010-09-06 00:10:00",135681,10.15,309.8,0.945,0.151,23.57,111.1737,27.91,28.82,10,0,111.4,13.07,28.76,271.8
"2010-09-06 00:10:30",135682,9.94,310,0.935,0.243,23.57,111.1712,27.91,28.81,10.06,0,111.4,13.07,28.75,272.0
"2010-09-06 00:11:00",135683,9.85,310.2,0.547,0.131,23.74,111.1662,27.89,28.81,10.07,0,111.4,13.07,28.74,272.2
"2010-09-06 00:11:30",135684,9.44,305.9,2.282,0.212,23.86,111.1656,27.89,28.78,9.98,0,111.4,13.07,28.74,267.9
"2010-09-06 00:12:00",135685,9.11,307.5,1.071,0.231,23.92,111.1648,27.89,28.78,9.91,0,111.4,13.07,28.74,269.5
"2010-09-06 00:12:30",135686,9.43,307.6,1.545,0.095,23.93,111.1594,27.87,28.77,9.91,0,111.4,13.07,28.72,269.6
"2010-09-06 00:13:00",135687,9.49,307,1.108,0.087,23.97,111.1478,27.85,28.76,9.95,0,111.4,13.07,28.69,269.0
"2010-09-06 00:13:30",135688,9.41,305.1,0.986,0.159,23.95,111.1421,27.83,28.76,9.97,0,111.4,13.07,28.68,267.1
"2010-09-06 00:14:00",135689,9.76,304.4,1.333,0.154,23.95,111.1382,27.82,28.75,10.06,0,111.4,13.07,28.67,266.4
"2010-09-06 00:14:30",135690,9.68,303.6,0.597,0.172,23.94,111.1386,27.82,28.74,10.12,0,111.4,13.07,28.67,265.6
"2010-09-06 00:15:00",135691,9.76,303.2,1.04,0.261,23.9,111.1272,27.79,28.73,10.2,0,111.4,13.08,28.64,265.2
"2010-09-06 00:15:30",135692,10.32,301.7,0.984,0.162,23.91,111.1144,27.76,28.71,10.24,0,111.4,13.08,28.61,263.7
"2010-09-06 00:16:00",135693,10.52,303.1,0.447,0.189,23.88,111.1074,27.74,28.68,10.25,0,111.4,13.08,28.59,265.1
"2010-09-06 00:16:30",135694,10.77,303,0.332,0.211,23.88,111.1006,27.72,28.66,10.16,0,111.4,13.08,28.57,265.0
"2010-09-06 00:17:00",135695,10.51,302.5,1.226,0.24,23.93,111.0841,27.68,28.65,10.11,0,111.4,13.08,28.53,264.5
"2010-09-06 00:17:30",135696,10.31,304.3,0.487,0.131,23.92,111.0788,27.67,28.62,10.13,0,111.4,13.07,28.52,266.3
"2010-09-06 00:18:00",135697,10.3,304.2,0.725,0.091,23.93,111.074,27.66,28.6,10.13,0,111.4,13.07,28.50,266.2
"2010-09-06 00:18:30",135698,10.11,304.6,0.801,0.074,23.95,111.0732,27.65,28.59,10.13,0,111.4,13.07,28.50,266.6
"2010-09-06 00:19:00",135699,10.33,304,1.029,0.171,23.95,111.0698,27.64,28.57,10.11,0,111.4,13.06,28.49,266.0
"2010-09-06 00:19:30",135700,10.08,304.5,1.545,0.315,23.98,111.0645,27.63,28.57,10.15,0,111.4,13.07,28.48,266.5
"2010-09-06 00:20:00",135701,10.32,306,0.739,0.13,23.94,111.0524,27.6,28.55,10.17,0,111.4,13.07,28.45,268.0
"2010-09-06 00:20:30",135702,10.04,305.7,0.691,0.12,24,111.0476,27.59,28.56,10.18,0,111.4,13.07,28.44,267.7
"2010-09-06 00:21:00",135703,10.19,306.4,1.164,0.185,23.86,111.0426,27.57,28.56,10.26,0,111.4,13.07,28.42,268.4
"2010-09-06 00:21:30",135704,10.44,307.7,1.901,0.181,23.89,111.04,27.57,28.53,10.26,0,111.4,13.07,28.42,269.7
"2010-09-06 00:22:00",135705,10.6,309.3,0.913,0.228,23.87,111.0381,27.56,28.51,10.27,0,111.4,13.07,28.41,271.3
"2010-09-06 00:22:30",135706,10.76,308,1.021,0.292,23.84,111.0199,27.52,28.5,10.27,0,111.4,13.07,28.36,270.0
"2010-09-06 00:23:00",135707,11.42,309.6,0.684,0.15,23.89,111.0141,27.5,28.49,10.15,0,111.4,13.08,28.35,271.6
"2010-09-06 00:23:30",135708,11.65,309.8,0.8,0.155,23.87,111.011,27.49,28.47,10.16,0,111.4,13.08,28.34,271.8
"2010-09-06 00:24:00",135709,11.75,308.9,0.546,0.107,23.83,111.0154,27.5,28.46,10.24,0,111.4,13.08,28.35,270.9
"2010-09-06 00:24:30",135710,11.56,307.7,0.809,0.104,23.83,111.0208,27.52,28.46,10.3,0,111.4,13.08,28.37,269.7
"2010-09-06 00:25:00",135711,11.56,306.1,1.189,0.235,23.81,111.0247,27.53,28.43,10.34,0,111.4,13.08,28.38,268.1
"2010-09-06 00:25:30",135712,11.46,304.6,1.23,0.263,23.9,111.0148,27.5,28.42,10.26,0,111.4,13.08,28.35,266.6
"2010-09-06 00:26:00",135713,11.41,304.1,1.198,0.196,23.9,111.0142,27.5,28.41,10.26,0,111.3,13.08,28.35,266.1
"2010-09-06 00:26:30",135714,11.13,301.1,1.377,0.142,23.91,111.0128,27.5,28.41,10.27,0,111.3,13.08,28.35,263.1
"2010-09-06 00:27:00",135715,10.79,301.8,0.854,0.167,23.89,111.012,27.5,28.41,10.28,0,111.3,13.08,28.34,263.8
"2010-09-06 00:27:30",135716,10.78,301.1,0.559,0.185,23.92,111.012,27.5,28.4,10.31,0,111.3,13.08,28.34,263.1
"2010-09-06 00:28:00",135717,10.34,302.2,1.138,0.152,23.88,111.0106,27.49,28.4,10.34,0,111.3,13.08,28.34,264.2
"2010-09-06 00:28:30",135718,10.06,302.2,0.584,0.232,23.93,111.0117,27.5,28.4,10.28,0,111.3,13.08,28.34,264.2
"2010-09-06 00:29:00",135719,10.17,303.3,1.523,0.129,23.85,111.0154,27.5,28.41,10.32,0,111.3,13.08,28.35,265.3
"2010-09-06 00:29:30",135720,10.28,303.9,0.594,0.148,23.76,111.0147,27.5,28.4,10.35,0,111.3,13.08,28.35,265.9
"2010-09-06 00:30:00",135721,10.61,303.7,0.789,0.121,23.8,111.0133,27.5,28.39,10.39,0,111.3,13.08,28.35,265.7
"2010-09-06 00:30:30",135722,10.78,303.1,0.659,0.148,23.78,111.0108,27.49,28.4,10.41,0,111.3,13.09,28.34,265.1
"2010-09-06 00:31:00",135723,10.5,303.4,0.886,0.136,23.77,111.0094,27.49,28.39,10.42,0,111.3,13.09,28.34,265.4
"2010-09-06 00:31:30",135724,10.31,302.6,0.788,0.265,23.92,111.0101,27.49,28.37,10.37,0,111.3,13.09,28.34,264.6
"2010-09-06 00:32:00",135725,10,301.2,1.239,0.179,23.96,111.0107,27.49,28.39,10.3,0,111.3,13.09,28.34,263.2
"2010-09-06 00:32:30",135726,9.91,301.7,2.165,0.128,23.95,111.0143,27.5,28.38,10.28,0,111.3,13.09,28.35,263.7
"2010-09-06 00:33:00",135727,9.92,302.2,1.078,0.144,23.89,111.0182,27.51,28.39,10.32,0,111.3,13.09,28.36,264.2
"2010-09-06 00:33:30",135728,10.32,303.3,0.551,0.251,23.81,111.0168,27.51,28.4,10.42,0,111.3,13.09,28.36,265.3
"2010-09-06 00:34:00",135729,10.42,303.1,0.981,0.203,23.86,111.0126,27.5,28.41,10.43,0,111.3,13.09,28.35,265.1
"2010-09-06 00:34:30",135730,10.45,303.9,1.369,0.129,23.81,111.0101,27.49,28.41,10.44,0,111.3,13.08,28.34,265.9
"2010-09-06 00:35:00",135731,10.56,301.8,1.187,0.187,23.87,111.0101,27.49,28.38,10.43,0,111.3,13.08,28.34,263.8
"2010-09-06 00:35:30",135732,10.59,301.2,0.763,0.134,23.92,111.0101,27.49,28.39,10.34,0,111.3,13.08,28.34,263.2
"2010-09-06 00:36:00",135733,10.8,304.1,1.004,0.21,23.87,111.0101,27.49,28.39,10.39,0,111.3,13.08,28.34,266.1
"2010-09-06 00:36:30",135734,10.52,305.7,0.792,0.173,23.82,111.0101,27.49,28.39,10.52,0,111.3,13.08,28.34,267.7
"2010-09-06 00:37:00",135735,10.89,307.8,1.458,0.224,23.79,111.0065,27.48,28.39,10.56,0,111.3,13.08,28.33,269.8
"2010-09-06 00:37:30",135736,10.82,309.3,0.649,0.193,23.74,110.991,27.44,28.39,10.62,0,111.3,13.08,28.29,271.3
"2010-09-06 00:38:00",135737,11.33,308.2,0.902,0.169,23.78,110.9818,27.42,28.37,10.68,0,111.3,13.08,28.27,270.2
"2010-09-06 00:38:30",135738,11.28,306.7,1.102,0.116,23.77,110.9764,27.4,28.35,10.7,0,111.3,13.08,28.25,268.7
"2010-09-06 00:39:00",135739,10.95,307.2,1.189,0.284,23.82,110.9764,27.4,28.33,10.71,0,111.3,13.08,28.25,269.2
"2010-09-06 00:39:30",135740,11.4,308.9,0.93,0.133,23.82,110.9742,27.4,28.33,10.72,0,111.3,13.08,28.25,270.9
"2010-09-06 00:40:00",135741,11.22,306.2,0.85,0.183,23.81,110.961,27.36,28.3,10.74,0,111.3,13.09,28.21,268.2
"2010-09-06 00:40:30",135742,10.83,304.6,1.404,0.253,23.84,110.9518,27.34,28.31,10.73,0,111.3,13.09,28.19,266.6
"2010-09-06 00:41:00",135743,10.26,306.1,1.868,0.132,23.82,110.9502,27.34,28.29,10.73,0,111.3,13.09,28.18,268.1
"2010-09-06 00:41:30",135744,10.68,307.3,1.012,0.163,23.81,110.9474,27.33,28.28,10.78,0,111.3,13.09,28.18,269.3
"2010-09-06 00:42:00",135745,10.61,305.4,2.106,0.182,23.87,110.9502,27.34,28.28,10.7,0,111.3,13.09,28.18,267.4
"2010-09-06 00:42:30",135746,10.2,307.7,1.838,0.27,23.89,110.9543,27.35,28.27,10.65,0,111.3,13.09,28.19,269.7
"2010-09-06 00:43:00",135747,10.22,304,2.521,0.309,23.88,110.9574,27.36,28.27,10.64,0,111.3,13.09,28.20,266.0
"2010-09-06 00:43:30",135748,10.39,302.9,1.529,0.403,23.93,110.9599,27.36,28.26,10.57,0,111.3,13.09,28.21,264.9
"2010-09-06 00:44:00",135749,10.86,303,4.056,0.478,23.97,110.9624,27.37,28.27,10.49,0,111.3,13.09,28.22,265.0
"2010-09-06 00:44:30",135750,9.91,303.9,2.6,0.69,23.93,110.9652,27.38,28.28,10.41,0,111.3,13.09,28.22,265.9
"2010-09-06 00:45:00",135751,9.97,300.7,2.71,0.644,23.95,110.9673,27.38,28.27,10.48,0,111.3,13.09,28.23,262.7
"2010-09-06 00:45:30",135752,10.33,298.2,4.18,0.315,23.95,110.9738,27.4,28.27,10.42,0,111.3,13.09,28.25,260.2
"2010-09-06 00:46:00",135753,10.45,305.1,1.561,0.326,23.88,110.9731,27.4,28.27,10.63,0,111.3,13.09,28.24,267.1
"2010-09-06 00:46:30",135754,10.25,305.1,1.606,0.29,23.94,110.9719,27.39,28.28,10.53,0,111.3,13.09,28.24,267.1
"2010-09-06 00:47:00",135755,11.03,305.8,1.639,0.24,23.89,110.9722,27.39,28.28,10.65,0,111.3,13.09,28.24,267.8
"2010-09-06 00:47:30",135756,10.87,305.2,1.562,0.293,23.83,110.9708,27.39,28.28,10.72,0,111.3,13.09,28.24,267.2
"2010-09-06 00:48:00",135757,10.84,301.4,2.482,0.471,23.92,110.9714,27.39,28.27,10.63,0,111.3,13.09,28.24,263.4
"2010-09-06 00:48:30",135758,10.72,302.2,0.723,0.369,23.91,110.973,27.4,28.27,10.65,0,111.3,13.09,28.24,264.2
"2010-09-06 00:49:00",135759,10.82,302.2,2.193,0.299,23.91,110.9745,27.4,28.28,10.71,0,111.3,13.1,28.25,264.2
"2010-09-06 00:49:30",135760,10.58,300.7,2.758,0.349,23.88,110.9755,27.4,28.28,10.63,0,111.3,13.09,28.25,262.7
"2010-09-06 00:50:00",135761,10.93,305.5,0.928,0.295,23.9,110.977,27.41,28.28,10.77,0,111.3,13.09,28.25,267.5
"2010-09-06 00:50:30",135762,10.72,304.5,1.317,0.157,23.88,110.9792,27.41,28.28,10.79,0,111.3,13.1,28.26,266.5
"2010-09-06 00:51:00",135763,10.78,303.4,1.423,0.193,23.93,110.9801,27.41,28.28,10.76,0,111.3,13.1,28.26,265.4
"2010-09-06 00:51:30",135764,10.04,303.8,1.359,0.362,23.97,110.9801,27.41,28.27,10.67,0,111.3,13.09,28.26,265.8
"2010-09-06 00:52:00",135765,10.29,305.5,1.74,0.458,23.9,110.9801,27.41,28.28,10.66,0,111.3,13.09,28.26,267.5
"2010-09-06 00:52:30",135766,10.5,302.3,0.875,0.245,24,110.9801,27.41,28.27,10.44,0,111.3,13.09,28.26,264.3
"2010-09-06 00:53:00",135767,10.41,301.8,2.836,0.521,23.92,110.9801,27.41,28.28,10.47,0,111.3,13.09,28.26,263.8
"2010-09-06 00:53:30",135768,10.59,298.1,1.963,0.39,23.93,110.9801,27.41,28.28,10.55,0,111.3,13.09,28.26,260.1
"2010-09-06 00:54:00",135769,9.39,296.4,1.663,0.372,23.99,110.9801,27.41,28.27,10.49,0,111.2,13.09,28.26,258.4
"2010-09-06 00:54:30",135770,9.31,296.1,1.463,0.182,23.98,110.9801,27.41,28.29,10.47,0,111.3,13.09,28.26,258.1
"2010-09-06 00:55:00",135771,9.44,297.3,1.308,0.197,23.93,110.9801,27.41,28.3,10.49,0,111.2,13.09,28.26,259.3
"2010-09-06 00:55:30",135772,9.75,299,2.147,0.266,23.94,110.9801,27.41,28.29,10.51,0,111.2,13.09,28.26,261.0
"2010-09-06 00:56:00",135773,9.2,296.3,1.801,0.224,23.97,110.9801,27.41,28.3,10.51,0,111.2,13.09,28.26,258.3
"2010-09-06 00:56:30",135774,9.05,297.8,1.264,0.134,23.99,110.9801,27.41,28.3,10.5,0,111.2,13.09,28.26,259.8
"2010-09-06 00:57:00",135775,9.35,306.1,4.95,0.357,23.92,110.9801,27.41,28.31,10.52,0,111.2,13.09,28.26,268.1
"2010-09-06 00:57:30",135776,10.07,310.1,1.652,0.29,23.79,110.9801,27.41,28.31,10.66,0,111.2,13.1,28.26,272.1
"2010-09-06 00:58:00",135777,9.48,312.8,1.118,0.234,23.78,110.9798,27.41,28.31,10.77,0,111.2,13.1,28.26,274.8
"2010-09-06 00:58:30",135778,9.71,308.7,1.135,0.239,23.82,110.9622,27.37,28.29,10.83,0,111.2,13.1,28.22,270.7
"2010-09-06 00:59:00",135779,9.86,307.1,1.244,0.111,23.82,110.9495,27.34,28.28,10.89,0,111.2,13.1,28.18,269.1
"2010-09-06 00:59:30",135780,9.57,305.7,1.204,0.15,23.82,110.9464,27.33,28.26,10.91,0,111.2,13.1,28.17,267.7
"2010-09-06 01:00:00",135781,9.3,304.6,0.824,0.113,23.89,110.9459,27.33,28.25,10.89,0,111.2,13.1,28.17,266.6
"2010-09-06 01:00:30",135782,9.1,304.2,0.851,0.167,23.87,110.9422,27.32,28.23,10.87,0,111.2,13.11,28.16,266.2
"2010-09-06 01:01:00",135783,8.84,303.3,0.868,0.331,23.96,110.9378,27.3,28.23,10.81,0,111.2,13.1,28.15,265.3
"2010-09-06 01:01:30",135784,8.69,302.9,2.341,0.569,24.07,110.9448,27.32,28.24,10.58,0,111.2,13.11,28.17,264.9
"2010-09-06 01:02:00",135785,8.51,304.3,1.015,0.33,23.97,110.948,27.33,28.23,10.74,0,111.2,13.11,28.18,266.3
"2010-09-06 01:02:30",135786,8.75,300.5,3.433,0.335,23.98,110.9492,27.33,28.24,10.72,0,111.2,13.11,28.18,262.5
"2010-09-06 01:03:00",135787,8.26,295.5,1.862,0.281,23.98,110.9508,27.34,28.24,10.74,0,111.2,13.11,28.19,257.5
"2010-09-06 01:03:30",135788,8.48,295.6,2.775,0.337,23.96,110.9511,27.34,28.24,10.73,0,111.2,13.11,28.19,257.6
"2010-09-06 01:04:00",135789,9.16,300,2.421,0.259,23.94,110.9499,27.34,28.25,10.73,0,111.2,13.11,28.18,262.0
"2010-09-06 01:04:30",135790,8.9,299.7,1.704,0.211,23.85,110.9508,27.34,28.24,10.81,0,111.2,13.1,28.19,261.7
"2010-09-06 01:05:00",135791,8.79,303.6,1.18,0.159,23.86,110.957,27.35,28.25,10.79,0,111.2,13.11,28.20,265.6
"2010-09-06 01:05:30",135792,8.91,304.1,2.637,0.349,23.8,110.9524,27.34,28.24,10.8,0,111.2,13.11,28.19,266.1
"2010-09-06 01:06:00",135793,9.52,297.8,1.128,0.363,23.9,110.9472,27.33,28.22,10.8,0,111.2,13.11,28.18,259.8
"2010-09-06 01:06:30",135794,9,298.2,0.867,0.149,23.94,110.9493,27.33,28.21,10.72,0,111.2,13.11,28.18,260.2
"2010-09-06 01:07:00",135795,9.42,299.5,0.922,0.148,23.85,110.9443,27.32,28.23,10.87,0,111.2,13.11,28.17,261.5
"2010-09-06 01:07:30",135796,9.65,298.5,1.189,0.17,23.86,110.9399,27.31,28.22,10.93,0,111.2,13.11,28.16,260.5
"2010-09-06 01:08:00",135797,9.65,297.7,1.029,0.234,23.85,110.9358,27.3,28.21,10.93,0,111.2,13.11,28.15,259.7
"2010-09-06 01:08:30",135798,9.89,297.8,1.252,0.398,23.87,110.9364,27.3,28.19,10.95,0,111.2,13.11,28.15,259.8
"2010-09-06 01:09:00",135799,10.21,298.1,0.851,0.168,23.88,110.938,27.31,28.18,10.94,0,111.2,13.1,28.15,260.1
"2010-09-06 01:09:30",135800,10.13,299.5,1.286,0.129,23.84,110.9377,27.3,28.19,11.01,0,111.2,13.1,28.15,261.5
"2010-09-06 01:10:00",135801,10.33,299.6,1.383,0.274,23.84,110.9368,27.3,28.17,11.04,0,111.2,13.1,28.15,261.6
"2010-09-06 01:10:30",135802,10.27,301.4,0.821,0.301,23.9,110.9328,27.29,28.18,10.97,0,111.2,13.1,28.14,263.4
"2010-09-06 01:11:00",135803,9.84,303.3,0.751,0.077,23.93,110.9267,27.28,28.17,10.93,0,111.2,13.1,28.12,265.3
"2010-09-06 01:11:30",135804,9.73,302.8,1.443,0.286,23.97,110.9259,27.27,28.16,10.87,0,111.2,13.1,28.12,264.8
"2010-09-06 01:12:00",135805,9.4,303.3,1.025,0.076,23.96,110.9312,27.29,28.15,10.86,0,111.2,13.1,28.14,265.3
"2010-09-06 01:12:30",135806,9.25,306.5,1.281,0.105,23.98,110.9332,27.29,28.18,10.82,0,111.2,13.1,28.14,268.5
"2010-09-06 01:13:00",135807,9.05,305,1.621,0.29,23.98,110.9388,27.31,28.17,10.84,0,111.2,13.1,28.15,267.0
"2010-09-06 01:13:30",135808,8.85,304.9,0.58,0.132,23.95,110.9412,27.31,28.18,10.83,0,111.2,13.1,28.16,266.9
"2010-09-06 01:14:00",135809,8.52,304.8,1.048,0.178,23.95,110.9421,27.32,28.17,10.85,0,111.2,13.11,28.16,266.8
"2010-09-06 01:14:30",135810,8.39,303.8,1.24,0.171,23.96,110.9461,27.33,28.18,10.85,0,111.2,13.11,28.17,265.8
"2010-09-06 01:15:00",135811,8.06,305.3,2.667,0.136,23.89,110.9455,27.32,28.18,10.88,0,111.2,13.11,28.17,267.3
"2010-09-06 01:15:30",135812,8.08,310.2,1.138,0.074,23.84,110.9377,27.3,28.17,10.92,0,111.2,13.11,28.15,272.2
"2010-09-06 01:16:00",135813,8.14,313.1,0.743,0.142,23.8,110.9232,27.27,28.16,11.02,0,111.2,13.11,28.11,275.1
"2010-09-06 01:16:30",135814,8.55,310.6,1.241,0.129,23.85,110.9177,27.25,28.15,11.06,0,111.2,13.11,28.10,272.6
"2010-09-06 01:17:00",135815,8.02,307.3,1.997,0.195,23.87,110.9161,27.25,28.14,11.01,0,111.2,13.11,28.10,269.3
"2010-09-06 01:17:30",135816,8.13,307.7,2.668,0.16,23.88,110.9161,27.25,28.13,11,0,111.2,13.11,28.10,269.7
"2010-09-06 01:18:00",135817,7.78,306.2,2.456,0.357,23.96,110.9164,27.25,28.14,10.98,0,111.2,13.11,28.10,268.2
"2010-09-06 01:18:30",135818,7.271,303.7,2.974,0.33,23.98,110.9164,27.25,28.11,10.95,0,111.2,13.11,28.10,265.7
"2010-09-06 01:19:00",135819,7.116,309.1,1.241,0.152,23.9,110.9164,27.25,28.12,11,0,111.2,13.11,28.10,271.1
"2010-09-06 01:19:30",135820,7.384,313.3,1.022,0.164,23.84,110.9164,27.25,28.11,11.1,0,111.2,13.11,28.10,275.3
"2010-09-06 01:20:00",135821,7.131,313,0.702,0.16,23.87,110.9148,27.25,28.12,11.12,0,111.2,13.11,28.09,275.0
"2010-09-06 01:20:30",135822,6.806,309.8,2.265,0.237,23.88,110.9145,27.25,28.1,11.04,0,111.2,13.11,28.09,271.8
"2010-09-06 01:21:00",135823,7.394,308.5,1.524,0.284,23.87,110.9136,27.24,28.11,11,0,111.2,13.11,28.09,270.5
"2010-09-06 01:21:30",135824,7.244,310.9,2.203,0.166,23.84,110.9145,27.25,28.11,11.07,0,111.2,13.11,28.09,272.9
"2010-09-06 01:22:00",135825,7.56,311.5,2.134,0.222,23.83,110.9136,27.24,28.11,11.04,0,111.2,13.11,28.09,273.5
"2010-09-06 01:22:30",135826,9.04,311.3,0.706,0.23,23.81,110.9091,27.23,28.09,11.15,0,111.2,13.11,28.08,273.3
"2010-09-06 01:23:00",135827,8.88,310.6,1.841,0.395,23.83,110.8912,27.19,28.08,11.15,0,111.2,13.11,28.03,272.6
"2010-09-06 01:23:30",135828,8.53,307.6,1.014,0.111,23.83,110.8842,27.17,28.08,11.14,0,111.2,13.11,28.01,269.6
"2010-09-06 01:24:00",135829,8.45,308.6,1.042,0.241,23.83,110.8827,27.16,28.08,11.15,0,111.2,13.11,28.01,270.6
"2010-09-06 01:24:30",135830,8.92,309.5,1.039,0.305,23.83,110.8827,27.16,28.06,11.18,0,111.2,13.11,28.01,271.5
"2010-09-06 01:25:00",135831,8.89,306,2.927,0.258,23.85,110.8827,27.16,28.06,11.15,0,111.2,13.11,28.01,268.0
"2010-09-06 01:25:30",135832,8.4,302.1,1.362,0.322,23.86,110.8825,27.16,28.06,11.14,0,111.2,13.11,28.01,264.1
"2010-09-06 01:26:00",135833,7.751,309.9,3.05,0.119,23.83,110.8811,27.16,28.06,11.17,0,111.2,13.11,28.01,271.9
"2010-09-06 01:26:30",135834,7.862,311.9,1.426,0.131,23.84,110.8707,27.13,28.04,11.2,0,111.2,13.11,27.98,273.9
"2010-09-06 01:27:00",135835,7.82,311,0.767,0.119,23.85,110.8606,27.11,28.03,11.2,0,111.2,13.11,27.95,273.0
"2010-09-06 01:27:30",135836,7.904,313.2,1.893,0.138,23.82,110.8558,27.09,28.02,11.22,0,111.2,13.11,27.94,275.2
"2010-09-06 01:28:00",135837,7.965,314.4,0.796,0.116,23.83,110.8493,27.08,28.02,11.23,0,111.2,13.11,27.92,276.4
"2010-09-06 01:28:30",135838,8.26,312.4,0.665,0.094,23.87,110.8491,27.08,28.02,11.22,0,111.2,13.11,27.92,274.4
"2010-09-06 01:29:00",135839,8.04,313.7,0.839,0.141,23.9,110.8491,27.08,28.02,11.22,0,111.2,13.11,27.92,275.7
"2010-09-06 01:29:30",135840,8.07,313.9,0.817,0.142,23.83,110.8491,27.08,28.02,11.24,0,111.2,13.11,27.92,275.9
"2010-09-06 01:30:00",135841,8.14,314.6,0.54,0.098,23.83,110.8491,27.08,28,11.26,0,111.2,13.11,27.92,276.6
"2010-09-06 01:30:30",135842,8.5,313.4,0.872,0.128,23.84,110.8491,27.08,28,11.27,0,111.2,13.11,27.92,275.4
"2010-09-06 01:31:00",135843,8.83,314.1,1.878,0.231,23.82,110.8494,27.08,28,11.27,0,111.2,13.11,27.92,276.1
"2010-09-06 01:31:30",135844,8.91,313.6,2.097,0.145,23.81,110.8516,27.08,28,11.28,0,111.2,13.11,27.93,275.6
"2010-09-06 01:32:00",135845,9.08,313,0.962,0.149,23.81,110.8449,27.07,27.99,11.29,0,111.2,13.12,27.91,275.0
"2010-09-06 01:32:30",135846,9.2,314.4,0.371,0.109,23.86,110.838,27.05,28,11.3,0,111.2,13.12,27.89,276.4
"2010-09-06 01:33:00",135847,9.06,315.1,0.522,0.086,23.77,110.8315,27.03,27.97,11.34,0,111.2,13.12,27.88,277.1
"2010-09-06 01:33:30",135848,9.02,311.7,1.789,0.181,23.86,110.8248,27.01,27.96,11.32,0,111.2,13.12,27.86,273.7
"2010-09-06 01:34:00",135849,9.19,309.1,0.882,0.162,23.86,110.825,27.01,27.95,11.3,0,111.2,13.12,27.86,271.1
"2010-09-06 01:34:30",135850,9.04,308.9,2.067,0.337,23.82,110.8275,27.02,27.95,11.32,0,111.2,13.12,27.87,270.9
"2010-09-06 01:35:00",135851,9.19,306.7,1.707,0.203,23.89,110.8309,27.03,27.95,11.3,0,111.2,13.12,27.88,268.7
"2010-09-06 01:35:30",135852,8.72,307,1.116,0.278,23.91,110.8325,27.03,27.94,11.27,0,111.2,13.12,27.88,269.0
"2010-09-06 01:36:00",135853,8.46,305.8,1.369,0.225,23.89,110.8374,27.05,27.93,11.27,0,111.2,13.12,27.89,267.8
"2010-09-06 01:36:30",135854,8.59,307.2,0.682,0.097,23.87,110.8402,27.05,27.94,11.32,0,111.2,13.12,27.90,269.2
"2010-09-06 01:37:00",135855,8.49,305.9,0.961,0.063,23.84,110.8393,27.05,27.94,11.32,0,111.2,13.12,27.90,267.9
"2010-09-06 01:37:30",135856,8.67,306,1.128,0.114,23.85,110.8418,27.06,27.94,11.33,0,111.2,13.12,27.90,268.0
"2010-09-06 01:38:00",135857,8.64,307.3,0.54,0.155,23.86,110.8421,27.06,27.94,11.32,0,111.2,13.12,27.91,269.3
"2010-09-06 01:38:30",135858,8.47,308.1,1.21,0.103,23.86,110.8412,27.06,27.95,11.34,0,111.2,13.12,27.90,270.1
"2010-09-06 01:39:00",135859,8.89,310.2,0.962,0.193,23.82,110.8434,27.06,27.92,11.36,0,111.2,13.13,27.91,272.2
"2010-09-06 01:39:30",135860,8.82,311.1,0.764,0.16,23.85,110.8434,27.06,27.92,11.37,0,111.2,13.12,27.91,273.1
"2010-09-06 01:40:00",135861,8.72,310.7,1.02,0.143,23.85,110.8425,27.06,27.92,11.36,0,111.2,13.13,27.91,272.7
"2010-09-06 01:40:30",135862,8.99,311.4,0.502,0.253,23.8,110.8422,27.06,27.93,11.39,0,111.2,13.13,27.91,273.4
"2010-09-06 01:41:00",135863,9.42,310.9,1.263,0.207,23.78,110.8383,27.05,27.92,11.41,0,111.2,13.13,27.90,272.9
"2010-09-06 01:41:30",135864,9.86,310.9,1.157,0.134,23.78,110.8212,27.01,27.91,11.41,0,111.2,13.13,27.85,272.9
"2010-09-06 01:42:00",135865,9.75,310.4,0.711,0.183,23.73,110.815,26.99,27.91,11.43,0,111.2,13.13,27.84,272.4
"2010-09-06 01:42:30",135866,9.74,310,0.813,0.097,23.74,110.8097,26.98,27.9,11.44,0,111.2,13.13,27.82,272.0
"2010-09-06 01:43:00",135867,9.56,309.8,0.861,0.093,23.77,110.8097,26.98,27.89,11.45,0,111.2,13.12,27.82,271.8
"2010-09-06 01:43:30",135868,9.49,310.8,0.646,0.088,23.76,110.8097,26.98,27.87,11.44,0,111.2,13.12,27.82,272.8
"2010-09-06 01:44:00",135869,9.59,311.8,1.048,0.169,23.79,110.8039,26.96,27.87,11.46,0,111.2,13.12,27.81,273.8
"2010-09-06 01:44:30",135870,9.63,310.3,1.378,0.133,23.78,110.7882,26.92,27.85,11.46,0,111.2,13.11,27.77,272.3
"2010-09-06 01:45:00",135871,9.41,309.2,0.861,0.172,23.78,110.7866,26.92,27.83,11.45,0,111.2,13.11,27.76,271.2
"2010-09-06 01:45:30",135872,9.4,309.3,0.556,0.137,23.79,110.7853,26.91,27.85,11.47,0,111.2,13.11,27.76,271.3
"2010-09-06 01:46:00",135873,9.5,310.2,0.892,0.178,23.78,110.7818,26.9,27.84,11.46,0,111.2,13.11,27.75,272.2
"2010-09-06 01:46:30",135874,10.19,310.2,0.544,0.158,23.77,110.7819,26.9,27.82,11.48,0,111.2,13.11,27.75,272.2
"2010-09-06 01:47:00",135875,9.94,310.6,0.489,0.168,23.74,110.7816,26.9,27.81,11.48,0,111.2,13.11,27.75,272.6
"2010-09-06 01:47:30",135876,9.94,308.8,0.897,0.076,23.87,110.7844,26.91,27.8,11.47,0,111.2,13.12,27.76,270.8
"2010-09-06 01:48:00",135877,9.79,307.9,0.737,0.1,23.88,110.7847,26.91,27.8,11.49,0,111.2,13.12,27.76,269.9